FDX19 KMEM-PANC

Flight info

Callsign FDX19
Flight time N/A
Altitude 32000
Route JTEEE5 ODATE KK51I HIBAV KP75E KP87C KP12Y/N0478F340 KU18W MUSRA GUDOG YEGGA YQU 57N125W MITOM/N0472F360 DEEJA NCA10 YAK J501 JOH PTERS3
Aircraft MD11/H-SDE1E2E3FGHIJ2J3J4J5M1RWXY/LB1D1

Departure

Time 2026-05-01 12:43
Airport Memphis International Airport (KMEM)

Arrival

Time N/A
Airport Ted Stevens Anchorage International Airport (PANC)
Time Latitude Longitude Altitude Speed Heading
2026-05-01 12:04 35.06027 -89.97354 338 ft 0 kts
2026-05-01 12:28 35.06002 -89.97355 335 ft 4 kts
2026-05-01 12:28 35.05975 -89.97355 336 ft 4 kts
2026-05-01 12:28 35.05942 -89.97360 333 ft 4 kts 72°
2026-05-01 12:29 35.05939 -89.97388 333 ft 4 kts 92°
2026-05-01 12:29 35.05940 -89.97409 333 ft 0 kts 92°
2026-05-01 12:36 35.05939 -89.97401 333 ft 3 kts 92°
2026-05-01 12:37 35.05938 -89.97349 333 ft 9 kts 92°
2026-05-01 12:37 35.05936 -89.97258 334 ft 11 kts 92°
2026-05-01 12:37 35.05933 -89.97172 337 ft 9 kts 92°
2026-05-01 12:37 35.05931 -89.97102 337 ft 8 kts 92°
2026-05-01 12:38 35.05929 -89.97026 338 ft 10 kts 92°
2026-05-01 12:38 35.05926 -89.96926 338 ft 13 kts 92°
2026-05-01 12:38 35.05923 -89.96816 333 ft 12 kts 92°
2026-05-01 12:38 35.05920 -89.96719 334 ft 10 kts 91°
2026-05-01 12:39 35.05918 -89.96640 335 ft 8 kts 91°
2026-05-01 12:39 35.05917 -89.96578 338 ft 7 kts 92°
2026-05-01 12:39 35.05915 -89.96508 338 ft 10 kts 92°
2026-05-01 12:39 35.05912 -89.96409 335 ft 13 kts 92°
2026-05-01 12:40 35.05908 -89.96287 334 ft 16 kts 92°
2026-05-01 12:40 35.05904 -89.96144 335 ft 18 kts 91°
2026-05-01 12:40 35.05901 -89.96000 339 ft 16 kts 92°
2026-05-01 12:40 35.05897 -89.95878 337 ft 13 kts 92°
2026-05-01 12:41 35.05894 -89.95772 333 ft 11 kts 92°
2026-05-01 12:41 35.05892 -89.95684 338 ft 10 kts 92°
2026-05-01 12:41 35.05889 -89.95611 338 ft 7 kts 95°
2026-05-01 12:41 35.05870 -89.95569 333 ft 4 kts 134°
2026-05-01 12:42 35.05844 -89.95556 335 ft 5 kts 169°
2026-05-01 12:42 35.05802 -89.95570 335 ft 7 kts 212°
2026-05-01 12:42 35.05784 -89.95621 336 ft 5 kts 264°
2026-05-01 12:42 35.05783 -89.95739 340 ft 37 kts 270°
2026-05-01 12:43 35.05801 -89.96397 338 ft 116 kts 272°
2026-05-01 12:43 35.05839 -89.97663 351 ft 178 kts 272°
2026-05-01 12:43 35.05868 -89.99188 945 ft 176 kts 273°
2026-05-01 12:43 35.05881 -90.00695 1732 ft 181 kts 275°
2026-05-01 12:44 35.05897 -90.02290 2240 ft 194 kts 275°
2026-05-01 12:44 35.05910 -90.03962 2740 ft 198 kts 274°
2026-05-01 12:44 35.06096 -90.07347 3811 ft 215 kts 283°
2026-05-01 12:45 35.07767 -90.10500 4247 ft 243 kts 334°
2026-05-01 12:45 35.09401 -90.11044 4582 ft 250 kts 360°
2026-05-01 12:45 35.11211 -90.10866 4857 ft 270 kts
2026-05-01 12:46 35.13091 -90.10461 5506 ft 278 kts 11°
2026-05-01 12:46 35.15027 -90.10028 6211 ft 287 kts
2026-05-01 12:46 35.17018 -90.09633 6907 ft 293 kts
2026-05-01 12:46 35.19046 -90.09279 7645 ft 296 kts
2026-05-01 12:47 35.21104 -90.08956 8395 ft 299 kts
2026-05-01 12:47 35.23179 -90.08655 9148 ft 302 kts
2026-05-01 12:47 35.25280 -90.08365 9898 ft 305 kts
2026-05-01 12:47 35.27430 -90.08082 10233 ft 322 kts
2026-05-01 12:48 35.29728 -90.07792 10358 ft 345 kts
2026-05-01 12:48 35.32157 -90.07484 10912 ft 351 kts
2026-05-01 12:48 35.34598 -90.07172 11561 ft 356 kts
2026-05-01 12:48 35.37075 -90.06856 12207 ft 360 kts
2026-05-01 12:49 35.39582 -90.06538 12847 ft 364 kts
2026-05-01 12:49 35.42111 -90.06219 13480 ft 367 kts
2026-05-01 12:49 35.44664 -90.05897 14059 ft 371 kts
2026-05-01 12:49 35.47208 -90.05576 14593 ft 374 kts
2026-05-01 12:50 35.49846 -90.05243 15139 ft 377 kts
2026-05-01 12:50 35.52429 -90.04917 15699 ft 379 kts
2026-05-01 12:50 35.55061 -90.04585 16229 ft 382 kts
2026-05-01 12:50 35.57707 -90.04251 16732 ft 384 kts 360°
2026-05-01 12:51 35.60380 -90.03913 17253 ft 387 kts 360°
2026-05-01 12:51 35.63059 -90.03684 17724 ft 386 kts 354°
2026-05-01 12:51 35.68424 -90.03966 18663 ft 387 kts 349°
2026-05-01 12:52 35.71113 -90.04224 19047 ft 390 kts 348°
2026-05-01 12:52 35.76558 -90.04751 19833 ft 395 kts 347°
2026-05-01 12:52 35.79292 -90.05112 20197 ft 393 kts 342°
2026-05-01 12:53 35.84331 -90.07268 20953 ft 379 kts 323°
2026-05-01 12:53 35.86581 -90.08934 21361 ft 377 kts 320°
2026-05-01 12:53 35.88782 -90.10694 21795 ft 378 kts 319°
2026-05-01 12:54 35.90990 -90.12476 22229 ft 380 kts 318°
2026-05-01 12:54 35.95452 -90.16013 23110 ft 383 kts 318°
2026-05-01 12:54 35.97715 -90.17776 23578 ft 385 kts 318°
2026-05-01 12:55 36.02280 -90.21308 24341 ft 389 kts 317°
2026-05-01 12:55 36.04576 -90.23078 24715 ft 391 kts 317°
2026-05-01 12:55 36.06913 -90.24827 25089 ft 394 kts 319°
2026-05-01 12:56 36.09301 -90.26532 25458 ft 397 kts 319°
2026-05-01 12:56 36.11682 -90.28198 25840 ft 400 kts 319°
2026-05-01 12:56 36.14111 -90.29886 26210 ft 402 kts 319°
2026-05-01 12:56 36.16554 -90.31585 26576 ft 404 kts 319°
2026-05-01 12:57 36.19007 -90.33293 26945 ft 406 kts 319°
2026-05-01 12:57 36.23952 -90.36748 27636 ft 410 kts 318°
2026-05-01 12:57 36.26440 -90.38491 28058 ft 412 kts 318°
2026-05-01 12:58 36.28941 -90.40245 28328 ft 415 kts 317°
2026-05-01 12:58 36.31455 -90.42010 28652 ft 417 kts 317°
2026-05-01 12:58 36.33989 -90.43789 29004 ft 419 kts 317°
2026-05-01 12:59 36.39082 -90.47369 29665 ft 423 kts 317°
2026-05-01 12:59 36.41644 -90.49172 29996 ft 424 kts 316°
2026-05-01 12:59 36.46746 -90.52757 30726 ft 422 kts 316°
2026-05-01 13:00 36.51834 -90.56342 31429 ft 420 kts 315°
2026-05-01 13:00 36.54377 -90.58138 31735 ft 419 kts 315°
2026-05-01 13:01 36.59445 -90.61725 32096 ft 420 kts 314°
2026-05-01 13:01 36.61988 -90.63532 32105 ft 422 kts 314°
2026-05-01 13:02 36.69661 -90.68974 32111 ft 423 kts 314°
2026-05-01 13:07 37.25728 -91.09153 32139 ft 416 kts 315°
2026-05-01 13:08 37.30728 -91.12760 32126 ft 414 kts 314°
2026-05-01 13:08 37.35712 -91.16376 32129 ft 415 kts 314°
2026-05-01 13:09 37.40716 -91.20010 32128 ft 415 kts 314°
2026-05-01 13:09 37.45719 -91.23642 32135 ft 415 kts 314°
2026-05-01 13:10 37.50717 -91.27278 32144 ft 414 kts 314°
2026-05-01 13:10 37.55703 -91.30931 32129 ft 415 kts 314°
2026-05-01 13:11 37.60694 -91.34586 32135 ft 415 kts 314°
2026-05-01 13:11 37.65661 -91.38220 32127 ft 415 kts 314°
2026-05-01 13:12 37.70657 -91.41876 32134 ft 415 kts 314°
2026-05-01 13:12 37.75658 -91.45545 32139 ft 417 kts 315°
2026-05-01 13:13 37.80672 -91.49226 32134 ft 416 kts 315°
2026-05-01 13:13 37.85682 -91.52909 32142 ft 417 kts 315°
2026-05-01 13:14 37.90720 -91.56627 32132 ft 420 kts 315°
2026-05-01 13:14 37.95753 -91.60339 32151 ft 421 kts 316°
2026-05-01 13:15 38.00832 -91.64092 32140 ft 423 kts 316°
2026-05-01 13:15 38.05916 -91.67853 32147 ft 423 kts 316°
2026-05-01 13:16 38.10139 -91.70982 32152 ft 423 kts 316°
2026-05-01 13:16 38.15225 -91.74757 32158 ft 423 kts 316°
2026-05-01 13:17 38.25400 -91.82345 32151 ft 425 kts 317°
2026-05-01 13:18 38.33050 -91.88077 32124 ft 425 kts 317°
2026-05-01 13:18 38.38153 -91.91896 32123 ft 426 kts 317°
2026-05-01 13:19 38.43276 -91.95738 32142 ft 428 kts 317°
2026-05-01 13:20 38.50977 -92.01516 32156 ft 428 kts 317°
2026-05-01 13:20 38.56108 -92.05376 32163 ft 428 kts 317°
2026-05-01 13:21 38.63536 -92.11517 32193 ft 420 kts 312°
2026-05-01 13:21 38.68240 -92.15915 32155 ft 418 kts 312°
2026-05-01 13:22 38.72939 -92.20317 32156 ft 419 kts 312°
2026-05-01 13:22 38.77656 -92.24713 32156 ft 419 kts 312°
2026-05-01 13:23 38.82371 -92.29099 32141 ft 419 kts 312°
2026-05-01 13:23 38.87096 -92.33503 32215 ft 421 kts 312°
2026-05-01 13:24 38.91812 -92.37898 32149 ft 417 kts 312°
2026-05-01 13:25 38.98849 -92.44480 32163 ft 417 kts 312°
2026-05-01 13:25 39.03540 -92.48879 32159 ft 419 kts 312°
2026-05-01 13:26 39.08280 -92.53336 32157 ft 424 kts 312°
2026-05-01 13:26 39.13044 -92.57810 32157 ft 422 kts 312°
2026-05-01 13:27 39.17787 -92.62272 32154 ft 422 kts 312°
2026-05-01 13:27 39.24897 -92.68985 32150 ft 422 kts 312°
2026-05-01 13:28 39.31999 -92.75741 32189 ft 423 kts 312°
2026-05-01 13:29 39.41467 -92.84747 32149 ft 423 kts 312°
2026-05-01 13:31 39.55653 -92.98270 32164 ft 424 kts 313°
2026-05-01 13:32 39.67532 -93.09650 32149 ft 426 kts 313°
2026-05-01 13:33 39.79436 -93.21103 32158 ft 426 kts 314°
2026-05-01 13:34 39.88973 -93.30315 32149 ft 427 kts 313°
2026-05-01 13:35 39.96118 -93.37252 32145 ft 427 kts 313°
2026-05-01 13:36 40.03261 -93.44229 32143 ft 428 kts 314°
2026-05-01 13:36 40.10427 -93.51214 32139 ft 428 kts 314°
2026-05-01 13:37 40.15170 -93.55844 32141 ft 429 kts 314°
2026-05-01 13:37 40.19976 -93.60544 32181 ft 429 kts 314°
2026-05-01 13:38 40.27135 -93.67566 32129 ft 432 kts 314°
2026-05-01 13:39 40.31944 -93.72289 32128 ft 432 kts 314°
2026-05-01 13:39 40.36756 -93.77024 32126 ft 432 kts 314°
2026-05-01 13:40 40.41559 -93.81760 32165 ft 432 kts 315°
2026-05-01 13:40 40.46399 -93.86547 32123 ft 437 kts 315°
2026-05-01 13:41 40.51265 -93.91361 32121 ft 438 kts 315°
2026-05-01 13:41 40.56127 -93.96179 32120 ft 438 kts 315°
2026-05-01 13:42 40.60988 -94.01012 32119 ft 438 kts 315°
2026-05-01 13:42 40.65829 -94.05863 32119 ft 438 kts 315°
2026-05-01 13:43 40.70681 -94.10720 32116 ft 438 kts 315°
2026-05-01 13:43 40.75529 -94.15567 32116 ft 438 kts 315°
2026-05-01 13:44 40.80380 -94.20422 32102 ft 437 kts 315°
2026-05-01 13:44 40.85174 -94.25229 32130 ft 438 kts 316°
2026-05-01 13:45 40.90042 -94.30124 32102 ft 440 kts 316°
2026-05-01 13:45 40.94901 -94.35054 32102 ft 440 kts 315°
2026-05-01 13:46 40.99718 -94.40029 32102 ft 440 kts 315°
2026-05-01 13:46 41.04540 -94.45021 32108 ft 440 kts 315°
2026-05-01 13:47 41.09372 -94.50026 32111 ft 442 kts 315°
2026-05-01 13:47 41.14216 -94.55047 32113 ft 442 kts 315°
2026-05-01 13:48 41.19056 -94.60072 32114 ft 442 kts 316°
2026-05-01 13:48 41.23903 -94.65115 32115 ft 443 kts 316°
2026-05-01 13:49 41.28758 -94.70178 32114 ft 445 kts 316°
2026-05-01 13:49 41.33624 -94.75261 32115 ft 445 kts 316°
2026-05-01 13:50 41.38494 -94.80356 32118 ft 445 kts 316°
2026-05-01 13:50 41.43361 -94.85460 32111 ft 445 kts 316°
2026-05-01 13:51 41.48229 -94.90575 32119 ft 446 kts 317°
2026-05-01 13:51 41.53112 -94.95718 32109 ft 448 kts 317°
2026-05-01 13:52 41.57995 -95.00870 32111 ft 447 kts 316°
2026-05-01 13:52 41.62856 -95.06043 32112 ft 447 kts 316°
2026-05-01 13:53 41.67721 -95.11218 32129 ft 448 kts 317°
2026-05-01 13:53 41.75065 -95.19022 32127 ft 450 kts 317°
2026-05-01 13:54 41.79961 -95.24231 32129 ft 450 kts 317°
2026-05-01 13:54 41.84855 -95.29450 32127 ft 450 kts 317°
2026-05-01 13:55 41.89756 -95.34689 32131 ft 452 kts 317°
2026-05-01 13:55 41.94643 -95.39923 32128 ft 452 kts 317°
2026-05-01 13:56 41.99594 -95.45235 32128 ft 452 kts 317°
2026-05-01 13:56 42.04474 -95.50481 32128 ft 452 kts 317°
2026-05-01 13:57 42.08589 -95.54915 32139 ft 454 kts 318°
2026-05-01 13:57 42.14333 -95.61117 32130 ft 456 kts 318°
2026-05-01 13:58 42.19280 -95.66468 32145 ft 456 kts 318°
2026-05-01 13:58 42.24221 -95.71834 32135 ft 456 kts 318°
2026-05-01 13:59 42.29143 -95.77220 32141 ft 457 kts 319°
2026-05-01 13:59 42.34076 -95.82608 32145 ft 458 kts 319°
2026-05-01 14:00 42.39034 -95.88020 32145 ft 458 kts 319°
2026-05-01 14:00 42.43991 -95.93438 32146 ft 458 kts 319°
2026-05-01 14:01 42.48952 -95.98865 32160 ft 460 kts 320°
2026-05-01 14:01 42.54073 -96.04043 32152 ft 461 kts 322°
2026-05-01 14:02 42.59332 -96.09088 32148 ft 462 kts 322°
2026-05-01 14:02 42.63689 -96.13265 32151 ft 461 kts 322°
2026-05-01 14:03 42.68919 -96.18313 32155 ft 461 kts 322°
2026-05-01 14:03 42.74134 -96.23370 32152 ft 461 kts 322°
2026-05-01 14:04 42.79358 -96.28450 32153 ft 461 kts 322°
2026-05-01 14:04 42.84569 -96.33528 32167 ft 461 kts 322°
2026-05-01 14:05 42.89800 -96.38637 32161 ft 463 kts 323°
2026-05-01 14:05 42.95041 -96.43765 32162 ft 463 kts 323°
2026-05-01 14:06 43.00277 -96.48899 32162 ft 463 kts 323°
2026-05-01 14:06 43.05503 -96.54034 32180 ft 463 kts 323°
2026-05-01 14:07 43.10747 -96.59199 32186 ft 465 kts 323°
2026-05-01 14:08 43.18614 -96.66977 32185 ft 465 kts 323°
2026-05-01 14:08 43.23848 -96.72196 32200 ft 465 kts 323°
2026-05-01 14:09 43.29098 -96.77422 32188 ft 467 kts 323°
2026-05-01 14:09 43.34354 -96.82650 32189 ft 467 kts 323°
2026-05-01 14:10 43.39614 -96.87891 32191 ft 466 kts 323°
2026-05-01 14:10 43.44861 -96.93131 32188 ft 467 kts 323°
2026-05-01 14:11 43.50118 -96.98394 32191 ft 467 kts 323°
2026-05-01 14:11 43.57958 -97.06264 32194 ft 467 kts 323°
2026-05-01 14:12 43.63213 -97.11553 32203 ft 467 kts 323°
2026-05-01 14:12 43.68455 -97.16841 32202 ft 467 kts 323°
2026-05-01 14:13 43.73706 -97.22150 32203 ft 467 kts 323°
2026-05-01 14:13 43.78950 -97.27462 32203 ft 467 kts 323°
2026-05-01 14:14 43.84189 -97.32785 32210 ft 467 kts 323°
2026-05-01 14:14 43.89393 -97.38117 32210 ft 467 kts 323°
2026-05-01 14:15 43.94619 -97.43473 32213 ft 467 kts 323°
2026-05-01 14:15 43.99846 -97.48822 32222 ft 467 kts 323°
2026-05-01 14:16 44.05072 -97.54176 32235 ft 467 kts 323°
2026-05-01 14:16 44.10293 -97.59537 32227 ft 467 kts 323°
2026-05-01 14:17 44.15515 -97.64912 32236 ft 467 kts 323°
2026-05-01 14:17 44.20701 -97.70262 32236 ft 467 kts 324°
2026-05-01 14:18 44.25949 -97.75687 32236 ft 467 kts 324°
2026-05-01 14:18 44.30277 -97.80171 32234 ft 467 kts 323°
2026-05-01 14:19 44.36330 -97.86457 32231 ft 466 kts 324°
2026-05-01 14:19 44.41539 -97.91879 32229 ft 466 kts 324°
2026-05-01 14:20 44.49338 -98.00020 32219 ft 467 kts 324°
2026-05-01 14:21 44.54469 -98.05586 32223 ft 467 kts 319°
2026-05-01 14:21 44.59049 -98.12059 32226 ft 468 kts 313°
2026-05-01 14:22 44.65607 -98.22200 32229 ft 468 kts 313°
2026-05-01 14:22 44.70018 -98.28928 32234 ft 468 kts 314°
2026-05-01 14:23 44.74441 -98.35634 32233 ft 468 kts 314°
2026-05-01 14:23 44.78862 -98.42341 32233 ft 467 kts 314°
2026-05-01 14:24 44.83278 -98.49060 32234 ft 467 kts 314°
2026-05-01 14:24 44.87687 -98.55787 32233 ft 467 kts 314°
2026-05-01 14:25 44.92096 -98.62531 32232 ft 467 kts 314°
2026-05-01 14:25 44.96488 -98.69266 32234 ft 467 kts 314°
2026-05-01 14:26 45.03086 -98.79413 32227 ft 467 kts 314°
2026-05-01 14:27 45.07478 -98.86191 32224 ft 466 kts 314°
2026-05-01 14:27 45.11829 -98.92937 32233 ft 464 kts 314°
2026-05-01 14:28 45.18304 -99.03058 32222 ft 464 kts 314°
2026-05-01 14:28 45.22645 -99.09825 32215 ft 464 kts 314°
2026-05-01 14:29 45.26987 -99.16597 32218 ft 464 kts 314°
2026-05-01 14:30 45.35671 -99.30191 32217 ft 464 kts 314°
2026-05-01 14:31 45.42098 -99.40300 32208 ft 458 kts 315°
2026-05-01 14:31 45.46368 -99.47033 32209 ft 458 kts 315°
2026-05-01 14:32 45.50634 -99.53775 32207 ft 458 kts 315°
2026-05-01 14:32 45.54897 -99.60531 32205 ft 458 kts 315°
2026-05-01 14:33 45.59148 -99.67285 32203 ft 457 kts 315°
2026-05-01 14:33 45.63388 -99.74038 32203 ft 456 kts 315°
2026-05-01 14:34 45.67615 -99.80804 32203 ft 457 kts 315°
2026-05-01 14:34 45.71813 -99.87589 32198 ft 452 kts 316°
2026-05-01 14:35 45.75971 -99.94292 32198 ft 450 kts 317°
2026-05-01 14:35 45.80129 -100.00980 32200 ft 449 kts 317°
2026-05-01 14:36 45.84282 -100.07673 32201 ft 449 kts 317°
2026-05-01 14:36 45.88396 -100.14320 32200 ft 449 kts 316°
2026-05-01 14:37 45.92541 -100.21035 32194 ft 449 kts 317°
2026-05-01 14:37 45.96695 -100.27782 32205 ft 448 kts 317°
2026-05-01 14:38 46.00794 -100.34455 32155 ft 448 kts 317°
2026-05-01 14:38 46.04910 -100.41179 32200 ft 442 kts 318°
2026-05-01 14:39 46.08941 -100.47772 32194 ft 442 kts 318°
2026-05-01 14:39 46.13000 -100.54426 32202 ft 442 kts 319°
2026-05-01 14:40 46.17052 -100.61086 32203 ft 442 kts 318°
2026-05-01 14:40 46.21100 -100.67756 32204 ft 442 kts 318°
2026-05-01 14:41 46.25124 -100.74463 32203 ft 442 kts 318°
2026-05-01 14:41 46.29154 -100.81183 32205 ft 442 kts 318°
2026-05-01 14:42 46.33184 -100.87886 32160 ft 441 kts 319°
2026-05-01 14:42 46.37181 -100.94546 32208 ft 437 kts 319°
2026-05-01 14:43 46.41168 -101.01191 32211 ft 436 kts 319°
2026-05-01 14:43 46.45142 -101.07832 32195 ft 436 kts 320°
2026-05-01 14:44 46.49115 -101.14490 32205 ft 437 kts 320°
2026-05-01 14:44 46.55059 -101.24485 32199 ft 437 kts 319°
2026-05-01 14:45 46.61006 -101.34520 32197 ft 437 kts 319°
2026-05-01 14:46 46.64965 -101.41223 32136 ft 437 kts 320°
2026-05-01 14:46 46.70916 -101.51323 32186 ft 438 kts 320°
2026-05-01 14:47 46.74879 -101.58074 32182 ft 438 kts 320°
2026-05-01 14:48 46.80796 -101.68269 32163 ft 439 kts 319°
2026-05-01 14:48 46.86729 -101.78481 32167 ft 440 kts 320°
2026-05-01 14:49 46.94634 -101.92099 32164 ft 440 kts 319°
2026-05-01 14:50 47.01882 -102.04640 32166 ft 441 kts 319°
2026-05-01 14:51 47.07817 -102.14955 32163 ft 441 kts 319°
2026-05-01 14:52 47.13523 -102.25652 32160 ft 446 kts 316°
2026-05-01 14:53 47.19054 -102.36601 32164 ft 446 kts 316°
2026-05-01 14:53 47.22740 -102.43872 32166 ft 446 kts 316°
2026-05-01 14:54 47.26451 -102.51192 32132 ft 446 kts 316°
2026-05-01 14:54 47.30165 -102.58530 32158 ft 447 kts 316°
2026-05-01 14:55 47.33875 -102.65883 32160 ft 447 kts 316°
2026-05-01 14:55 47.37576 -102.73239 32161 ft 447 kts 316°
2026-05-01 14:56 47.41276 -102.80613 32160 ft 447 kts 316°
2026-05-01 14:56 47.44970 -102.87995 32156 ft 447 kts 316°
2026-05-01 14:57 47.48666 -102.95399 32163 ft 447 kts 316°
2026-05-01 14:57 47.54200 -103.06525 32122 ft 447 kts 315°
2026-05-01 14:58 47.57891 -103.13968 32163 ft 449 kts 315°
2026-05-01 14:58 47.61546 -103.21427 32162 ft 449 kts 315°
2026-05-01 14:59 47.65210 -103.28927 32164 ft 449 kts 315°
2026-05-01 14:59 47.68871 -103.36392 32162 ft 449 kts 315°
2026-05-01 15:00 47.74391 -103.47658 32174 ft 450 kts 315°
2026-05-01 15:01 47.78063 -103.55175 32174 ft 450 kts 314°
2026-05-01 15:01 47.81731 -103.62707 32150 ft 450 kts 314°
2026-05-01 15:02 47.85405 -103.70269 32184 ft 450 kts 314°
2026-05-01 15:02 47.89066 -103.77832 32183 ft 450 kts 314°
2026-05-01 15:03 47.92720 -103.85398 32189 ft 450 kts 314°
2026-05-01 15:03 47.96374 -103.92982 32186 ft 450 kts 314°
2026-05-01 15:04 47.99997 -104.00527 32183 ft 450 kts 314°
2026-05-01 15:04 48.03644 -104.08142 32185 ft 450 kts 314°
2026-05-01 15:05 48.07243 -104.15803 32188 ft 452 kts 311°
2026-05-01 15:05 48.10668 -104.23718 32180 ft 455 kts 310°
2026-05-01 15:06 48.14070 -104.31712 32182 ft 455 kts 310°
2026-05-01 15:06 48.17481 -104.39691 32179 ft 455 kts 310°
2026-05-01 15:07 48.20897 -104.47667 32183 ft 454 kts 310°
2026-05-01 15:07 48.24305 -104.55643 32183 ft 454 kts 310°
2026-05-01 15:08 48.27709 -104.63633 32183 ft 454 kts 310°
2026-05-01 15:08 48.31106 -104.71630 32183 ft 454 kts 310°
2026-05-01 15:09 48.34462 -104.79554 32175 ft 456 kts 309°
2026-05-01 15:09 48.37862 -104.87606 32180 ft 456 kts 309°
2026-05-01 15:10 48.41255 -104.95668 32182 ft 456 kts 309°
2026-05-01 15:10 48.46335 -105.07783 32172 ft 456 kts 309°
2026-05-01 15:11 48.51400 -105.19928 32173 ft 457 kts 308°
2026-05-01 15:12 48.54746 -105.28080 32166 ft 456 kts 308°
2026-05-01 15:12 48.59776 -105.40286 32180 ft 457 kts 308°
2026-05-01 15:14 48.68178 -105.60690 32172 ft 457 kts 308°
2026-05-01 15:14 48.73186 -105.72925 32164 ft 457 kts 307°
2026-05-01 15:15 48.79857 -105.89310 32162 ft 457 kts 307°
2026-05-01 15:16 48.86515 -106.05762 32152 ft 457 kts 306°
2026-05-01 15:18 48.94774 -106.26329 32150 ft 457 kts 306°
2026-05-01 15:19 49.01321 -106.42915 32150 ft 457 kts 306°
2026-05-01 15:19 49.06250 -106.55348 32138 ft 457 kts 305°
2026-05-01 15:20 49.11173 -106.67811 32144 ft 457 kts 305°
2026-05-01 15:21 49.14451 -106.76142 32144 ft 458 kts 305°
2026-05-01 15:21 49.17722 -106.84484 32152 ft 457 kts 305°
2026-05-01 15:22 49.23856 -106.95303 32144 ft 448 kts 323°
2026-05-01 15:22 49.28759 -107.01180 32132 ft 447 kts 324°
2026-05-01 15:23 49.33626 -107.07083 32129 ft 448 kts 323°
2026-05-01 15:23 49.38450 -107.13126 32127 ft 448 kts 322°
2026-05-01 15:24 49.43251 -107.19221 32133 ft 448 kts 322°
2026-05-01 15:24 49.48048 -107.25336 32126 ft 448 kts 322°
2026-05-01 15:25 49.52858 -107.31477 32123 ft 450 kts 322°
2026-05-01 15:25 49.57665 -107.37631 32119 ft 450 kts 321°
2026-05-01 15:26 49.62445 -107.43766 32120 ft 450 kts 321°
2026-05-01 15:26 49.67255 -107.49956 32114 ft 450 kts 321°
2026-05-01 15:27 49.72059 -107.56154 32110 ft 450 kts 321°
2026-05-01 15:28 49.79261 -107.65477 32105 ft 450 kts 321°
2026-05-01 15:28 49.84055 -107.71708 32096 ft 450 kts 321°
2026-05-01 15:29 49.91220 -107.81127 32100 ft 450 kts 321°
2026-05-01 15:30 50.00772 -107.93655 32098 ft 450 kts 321°
2026-05-01 15:31 50.15110 -108.12554 32079 ft 450 kts 320°
2026-05-01 15:32 50.24647 -108.25212 32078 ft 451 kts 320°
2026-05-01 15:34 50.38952 -108.44328 32072 ft 451 kts 319°